Location: ????
(32.0243°N, 34.8063°E)
Time: 00:47:54
(UTC+00:00)

Daily predictions for brighter satellites

Satellite Brightness Start Highest point End
(mag) Time Altitude Azimuth Time Altitude Azimuth Time Altitude Azimuth
BREEZE-M DEB (TANK) 4.3 00:33:32 74° SSE 00:33:48 75° SE 00:38:58 10° ENE
NOSS 3-3 (A) 4.4 00:47:39 51° E 00:47:39 51° E 00:52:43 10° NE
NOSS 3-3 (C) 4.5 00:47:49 50° E 00:47:49 50° E 00:52:47 10° NE
Cosmos 1697 Rocket 4.4 00:50:48 23° N 00:50:48 23° N 00:53:00 10° N
Cosmos 1980 Rocket 3.0 00:53:31 44° NNE 00:53:31 44° NNE 00:57:19 10° NNE
H-2A R/B 4.3 00:52:23 10° SE 00:55:52 24° ENE 00:59:25 10° NNE
Cosmos 2322 Rocket 4.5 00:53:23 10° SE 00:57:21 20° E 01:01:20 10° NE
CZ-2C R/B 3.9 00:58:59 10° NNE 01:03:40 35° E 01:06:11 22° SSE
SL-16 R/B 3.8 01:01:41 18° SSE 01:04:46 30° ESE 01:09:37 10° NE
BREEZE-M DEB (TANK) 4.1 01:09:21 56° WNW 01:10:34 64° NNW 01:30:29 10° ENE
Cosmos 1812 4.2 01:17:10 36° ENE 01:17:10 36° ENE 01:20:02 10° NNE
Meteor 2-6 Rocket 4.4 01:17:30 39° SSE 01:19:32 67° E 01:25:12 10° NNE
Skynet4D Del rocket 4.0 01:21:40 49° SSE 01:21:40 49° SSE 01:27:17 10° E
SL-4 R/B 3.1 01:21:44 42° SE 01:21:46 42° SE 01:26:11 10° ENE
Landsat 5 4.2 01:19:51 10° SSE 01:24:14 56° ENE 01:28:39 10° N
USA 234 3.9 01:19:32 10° ESE 01:25:51 55° NE 01:32:11 10° NNW
Cosmos 1934 Rocket 3.8 01:23:28 10° N 01:29:31 80° W 01:35:36 10° S
Cosmos 1500 4.5 01:26:30 10° N 01:30:08 40° E 01:33:43 10° SSE
Lacrosse 5 3.9 01:32:48 15° NNW 01:32:48 15° NNW 01:35:00 10° N
ERBS 4.1 01:37:01 26° NNE 01:37:01 26° NNE 01:38:42 10° NNE
Cosmos 1238 Rocket 3.8 01:31:04 10° N 01:37:37 77° W 01:43:26 10° S
CSL-04 DEB 4.4 01:41:44 10° S 01:45:58 82° W 01:50:18 10° NNW
DELTA 4 R/B 4.1 01:37:39 30° W 01:46:31 59° SSW 01:51:51 10° ESE
Cosmos 1707 Rocket 4.2 01:44:05 10° S 01:48:17 53° E 01:52:30 10° NNE
MSX 4.3 01:44:08 10° N 01:49:22 37° WNW 01:49:36 36° WNW
Cosmos 921 Rocket 3.5 01:50:57 39° NW 01:50:57 39° NW 01:54:12 10° N
Timation 1 Rocket 4.2 01:44:59 10° NNW 01:51:00 84° WSW 01:57:00 10° SSE
ADEOS 4.1 01:46:12 10° NNE 01:51:19 58° ESE 01:56:26 10° S
Cosmos 1605 Rocket 3.9 01:45:51 10° N 01:52:16 83° W 01:58:39 10° S
Cosmos 2228 Rocket 3.9 01:53:39 33° NW 01:53:39 33° NW 01:56:46 10° N
IRIDIUM 103 4.3 01:48:37 10° N 01:53:52 84° E 01:59:04 10° S
IDEFIX/ARIANE 42P 4.2 01:51:27 10° NNW 01:53:40 18° NW 01:53:40 18° NW
Meteor 1-27 Rocket 4.0 01:54:52 10° S 02:00:46 76° E 02:06:42 10° NNE
OE (NEXTSAT) 4.4 02:04:55 36° NW 02:06:12 75° NE 02:09:38 10° ESE
Cosmos 841 Rocket 4.1 02:07:02 10° S 02:12:07 59° ESE 02:17:16 10° NNE
IRIDIUM 106 4.3 02:07:00 10° N 02:12:09 63° W 02:17:17 10° S
ALOS 2.6 02:08:18 10° NNE 02:12:57 68° E 02:17:34 10° S
Cosmos 1727 Rocket 4.1 02:11:23 10° SSW 02:17:35 57° W 02:23:50 10° N
Meteor 1-4 Rocket 3.1 02:18:17 31° W 02:18:24 31° WNW 02:21:33 10° NNW
Cosmos 1869 Rocket 3.6 02:15:04 10° NNW 02:19:16 52° W 02:23:27 10° S
Cosmos 1536 3.7 02:15:38 10° N 02:19:37 53° E 02:23:34 10° SSE
Cosmos 1862 Rocket 4.1 02:17:42 10° S 02:22:03 62° E 02:26:23 10° NNE
Cosmos 1763 Rocket 3.7 02:18:25 14° SW 02:22:48 50° WNW 02:27:58 10° N
Chandra Rocket (1) 3.9 02:12:35 17° W 02:22:49 47° SSW 02:27:32 10° SE
Cosmos 1570 Rocket 4.2 02:17:47 10° S 02:23:02 76° ESE 02:28:22 10° NNE
Cosmos 1484 Rocket 2.7 02:20:47 10° N 02:24:46 79° WNW 02:28:45 10° SSW
Cosmos 2360 Rocket 2.6 02:20:01 10° S 02:25:37 68° ESE 02:31:15 10° NNE
Cosmos 2100 Rocket 4.4 02:20:27 10° N 02:26:50 72° E 02:33:09 10° SSE
Cosmos 1689 Rocket 4.4 02:25:35 10° SE 02:28:08 27° ENE 02:30:42 10° NNE
H-2A R/B 3.2 02:28:21 10° SSW 02:31:42 22° W 02:35:08 10° NW
Cosmos 1437 Rocket 4.1 02:28:58 10° SSE 02:32:31 41° E 02:36:05 10° NNE
ERS-2 2.9 02:31:56 10° SSW 02:35:10 30° W 02:38:25 10° NW
SJ 16-02 1.4 02:30:54 10° NNW 02:35:12 56° WSW 02:39:29 10° S
Meteor 1-31 Rocket 2.6 02:31:40 10° N 02:35:28 70° WNW 02:39:17 10° SSW
Cosmos 2322 Rocket 2.6 02:35:37 10° SW 02:40:59 43° WNW 02:46:23 10° N
CZ-2C R/B 3.7 02:37:41 10° NNW 02:41:37 22° WNW 02:45:32 10° WSW
Cosmos 2123 Rocket 4.3 02:36:23 10° S 02:42:32 72° E 02:48:46 10° N
METEOR-M 4.1 02:39:00 10° N 02:44:19 70° WNW 02:49:37 10° SSW
Cosmos 2237 4.2 02:39:56 10° SSW 02:45:37 72° WNW 02:51:20 10° NNE
FENGYUN 3A 3.8 02:42:08 10° N 02:47:23 53° WNW 02:52:36 10° SSW
Meteor PRIRODA 3.8 02:44:42 10° NNE 02:48:22 74° E 02:51:58 10° S
Cosmos 1459 Rocket 3.9 02:42:37 10° N 02:48:43 82° W 02:54:44 10° S
SL-16 R/B 3.1 02:43:51 10° WSW 02:48:44 30° WNW 02:53:40 10° N
BREEZE-M DEB (TANK) 4.3 02:47:34 10° SSW 02:51:10 67° SE 03:03:18 10° NE
Cosmos 2263 Rocket 2.4 02:46:20 10° NNW 02:51:47 50° WSW 02:57:14 10° S
Cosmos 990 Rocket 4.0 02:46:46 10° NNW 02:51:55 63° WSW 02:57:03 10° S
COSMO-SKYMED 1 3.2 02:50:03 10° SSE 02:54:19 63° ENE 02:58:37 10° N
Cosmos 540 Rocket 3.7 02:51:20 10° SW 02:56:17 48° WNW 03:01:17 10° N
SJ-12 3.9 02:52:46 10° N 02:56:52 66° WNW 03:00:57 10° SSW
Cosmos 44 Rocket 3.5 02:54:55 10° SW 02:59:26 50° WNW 03:04:06 10° NNE
ATLAS 2AS CENTAUR R/B 4.3 02:52:47 10° NNW 02:59:30 37° NE 03:05:42 10° ESE
SL-4 R/B 3.5 02:57:38 10° W 03:01:36 28° NW 03:05:43 10° NNE
Cosmos 1515 4.1 02:58:26 10° S 03:02:12 69° E 03:05:58 10° NNE
USA 281 3.6 03:01:57 10° NNE 03:08:31 72° ESE 03:15:02 10° SSW
